This demonstration page uses our WeatherBlox Daily Observations layout. Learn more.

Left ArrowRight Arrow

39.92423, -83.80882

Hourly Observations for December 22, 2015

Temp ( °F °C ) Dew Point ( °F °C ) Humidity (%) Winds ( mph kmh ) Pressure ( in mb ) Visibility ( mi km ) Precip ( " mm )
12:56 am 00:56 Cloudy with Mist and Fog 54 12.2 54 12.2 100 100 S 12 19 29.84 1010 4 6.43736 0 0
1:39 am 01:39 Cloudy with Mist and Fog 55 13 55 13 100 100 S 8 13 29.8 1009 2 3.21868 0 0
1:56 am 01:56 Cloudy with Mist and Fog 55 12.7 55 12.7 100 100 S 8 13 29.8 1009 1.5 2.41401 0 0
2:04 am 02:04 Cloudy with Light Rain 55 13 55 13 100 100 S 8 13 29.8 1009 2 3.21868 0.01 0.254
2:19 am 02:19 Cloudy with Light Rain 55 13 55 13 100 100 S 7 11 29.8 1009 1.5 2.41401 0.04 1.016
2:31 am 02:31 Cloudy with Light Rain 55 13 55 13 100 100 S 9 15 29.8 1009 2.5 4.02335 0.06 1.524
2:38 am 02:38 Cloudy with Mist and Fog 55 13 55 13 100 100 S 8 13 29.8 1009 5 8.0467 0.06 1.524
2:56 am 02:56 Cloudy with Light Rain 55 12.7 55 12.7 100 100 SSW 10 17 29.79 1009 2.5 4.02335 0.1 2.54
3:03 am 03:03 Cloudy with Rain 55 13 55 13 100 100 S 9 15 29.8 1009 1.25 2.011675 0.07 1.778
3:08 am 03:08 Cloudy with Light Rain 55 13 55 13 100 100 S 9 15 29.8 1009 1.5 2.41401 0.07 1.778
3:11 am 03:11 Cloudy with Light Rain 55 13 55 13 100 100 S 9 15 29.8 1009 3 4.82802 0.08 2.032
3:22 am 03:22 Cloudy with Light Rain 55 13 55 13 100 100 S 7 11 29.77 1008 2 3.21868 0.11 2.794
3:29 am 03:29 Cloudy with Light Rain 55 13 55 13 100 100 S 9 15 29.77 1008 2 3.21868 0.14 3.556
3:37 am 03:37 Cloudy with Light Rain 55 13 55 13 100 100 S 9 15 29.77 1008 1.5 2.41401 0.18 4.572
3:42 am 03:42 Cloudy with Rain 55 13 55 13 100 100 SSW 10 17 29.77 1008 1 1.60934 0.3 7.62
3:56 am 03:56 Cloudy with Light Rain 55 12.7 55 12.7 100 100 SW 7 11 29.77 1008 1.75 2.816345 0.42 10.668
4:01 am 04:01 Cloudy with Light Rain 55 13 55 13 100 100 SSW 8 13 29.77 1008 3 4.82802 0.01 0.254
4:07 am 04:07 Cloudy with Rain 55 13 55 13 100 100 SW 8 13 29.77 1008 2 3.21868 0.04 1.016
4:12 am 04:12 Cloudy with Heavy Rain 55 13 55 13 100 100 WSW 7 11 29.77 1008 1.25 2.011675 0.09 2.286
4:25 am 04:25 Cloudy with Rain 55 13 55 13 100 100 SW 7 11 29.77 1008 1.5 2.41401 0.21 5.334
4:42 am 04:42 Cloudy with Heavy Rain 55 13 55 13 100 100 W 8 13 29.77 1008 1.5 2.41401 0.43 10.922
4:45 am 04:45 Cloudy with Light Rain 55 13 55 13 100 100 WSW 8 13 29.77 1008 1.75 2.816345 0.43 10.922
4:49 am 04:49 Cloudy with Light Rain 55 13 55 13 100 100 WSW 8 13 29.77 1008 3 4.82802 0.44 11.176
4:56 am 04:56 Cloudy with Light Rain 55 12.7 55 12.7 100 100 WSW 8 13 29.77 1008 3 4.82802 0.46 11.684
5:09 am 05:09 Cloudy with Light Rain 55 13 55 13 100 100 WSW 9 15 29.77 1008 9 14.48406 0.01 0.254
5:25 am 05:25 Cloudy 55 13 55 13 100 100 WSW 14 22 29.8 1009 10 16.0934 0.01 0.254
5:56 am 05:56 Cloudy 55 12.7 55 12.7 100 100 SW 7 11 29.79 1009 10 16.0934 0.01 0.254
6:32 am 06:32 Cloudy with Light Rain 55 13 55 13 100 100 WNW 12 19 29.8 1009 3 4.82802 0.02 0.508
6:56 am 06:56 Mostly Cloudy 53 11.6 53 11.6 100 100 W 5 7 29.8 1009 10 16.0934 0.04 1.016
7:56 am 07:56 Mostly Cloudy with Mist and Fog 49 9.4 49 9.4 100 100 S 5 7 29.83 1010 1.25 2.011675 0 0.0254
8:00 am 08:00 Sunny with Mist and Fog 50 10 50 10 100 100 S 3 6 29.83 1010 2 3.21868 0 0
8:07 am 08:07 Sunny 50 10 50 10 100 100 S 5 7 29.83 1010 10 16.0934 0 0
8:45 am 08:45 Mostly Cloudy 52 11 52 11 100 100 SW 7 11 29.85 1011 10 16.0934 0 0
8:56 am 08:56 Cloudy 52 11.1 52 11.1 100 100 SW 12 19 29.86 1011 10 16.0934 0 0
9:56 am 09:56 Partly Cloudy 53 11.6 52 11.1 97 97 SW 13 20 29.91 1013 10 16.0934 0 0
10:18 am 10:18 Mostly Cloudy 54 12 52 11 94 94 WSW 12 19 29.91 1013 10 16.0934 0 0
10:35 am 10:35 Partly Cloudy 54 12 52 11 94 94 WSW 12 19 29.91 1013 10 16.0934 0 0
10:56 am 10:56 Sunny 54 12.2 51 10.5 89 89 WSW 10 17 29.92 1013 10 16.0934 0 0
11:23 am 11:23 Mostly Cloudy 55 13 52 11 88 88 W 15 24 29.94 1014 10 16.0934 0 0
11:56 am 11:56 Partly Cloudy 55 12.7 49 9.4 81 81 W 12 19 29.91 1013 10 16.0934 0 0
12:46 pm 12:46 Mostly Cloudy 57 14 48 9 72 72 W 9 15 29.88 1012 10 16.0934 0 0
12:56 pm 12:56 Mostly Sunny 56 13.3 49 9.4 77 77 WSW 9 15 29.9 1013 10 16.0934 0 0
1:30 pm 13:30 Mostly Cloudy 57 14 48 9 72 72 SW 12 19 29.91 1013 10 16.0934 0 0
1:56 pm 13:56 Partly Cloudy 58 14.4 49 9.4 72 72 WSW 9 15 29.9 1012 10 16.0934 0 0
2:56 pm 14:56 Sunny 58 14.4 49 9.4 72 72 WSW 7 11 29.89 1012 10 16.0934 0 0
3:56 pm 15:56 Mostly Sunny 57 13.8 48 8.8 72 72 SSW 6 9 29.9 1012 10 16.0934 0 0
4:56 pm 16:56 Sunny 55 12.7 48 8.8 77 77 S 3 6 29.9 1013 10 16.0934 0 0
5:56 pm 17:56 Clear 48 8.8 47 8.3 97 97 ESE 5 7 29.92 1013 10 16.0934 0 0
6:56 pm 18:56 Clear 44 6.6 44 6.6 100 100 E 5 7 29.93 1013 10 16.0934 0 0
7:56 pm 19:56 Clear 46 7.7 46 7.7 100 100 SE 6 9 29.93 1013 10 16.0934 0 0
8:56 pm 20:56 Clear 45 7.2 45 7.2 100 100 SE 6 9 29.93 1013 10 16.0934 0 0
9:56 pm 21:56 Clear 47 8.3 47 8.3 100 100 SE 7 11 29.91 1013 10 16.0934 0 0
10:56 pm 22:56 Clear 48 8.8 48 8.8 100 100 ESE 7 11 29.89 1012 10 16.0934 0 0
11:56 pm 23:56 Partly Cloudy 51 10.5 51 10.5 100 100 SE 9 15 29.87 1012 10 16.0934 0 0

Powered by AerisWeather